Van Nuys, CA

1:37 AM PDT on June 18, 2018 (GMT -0700)
Van Nuys

Weather History for KVNY - October, 2017

Change the Weather History Date:

Monday, October 16, 2017

  Actual Average Record
Temperature  
Mean Temperature 80 °F -  
Max Temperature 99 °F 79 °F 100 °F (1997)
Min Temperature 61 °F 54 °F 50 °F (1998)
Cooling Degree Days 14    
Growing Degree Days 30 (Base 50)    
Moisture  
Dew Point 21 °F    
Average Humidity 14    
Maximum Humidity 29    
Minimum Humidity 4    
Precipitation  
Precipitation 0.00 in - - ()
Sea Level Pressure  
Sea Level Pressure 30.02 in    
Wind  
Wind Speed 3 mph (NW)    
Max Wind Speed 14 mph    
Max Gust Speed 18 mph    
Visibility 10 miles    
Events      
Averages and records for this station are not official NWS values.
T = Trace of Precipitation, MM = Missing Value Source: NWS Daily Summary

Daily Weather History Graph

Daily Weather History Graph

Search for Another Location

Airport or City:

Astronomy

Oct. 16, 2017 Rise Set
Actual Time 7:00 AM PDT 6:17 PM PDT
Civil Twilight 6:35 AM PDT 6:43 PM PDT
Nautical Twilight 6:05 AM PDT 7:12 PM PDT
Astronomical Twilight 5:36 AM PDT 7:41 PM PDT
Moon 3:51 AM PDT (10/16) 4:55 PM PDT (10/16)
Length of Visible Light 12h 08m
Length of Day
11h 17m
Waning Crescent, 10% of the Moon is Illuminated
Oct 16
Waning Crescent
Oct 19
New
Oct 27
First Quarter
Nov 3
Full
Nov 10
Last Quarter

Hourly Weather History & Observations

Time (PDT) Temp. Dew Point Humidity Pressure Visibility Wind Dir Wind Speed Gust Speed Precip Events Conditions
12:51 AM 66.9 °F 26.1 °F 21% 30.06 in 10.0 mi Calm Calm - N/A   Clear
1:51 AM 64.9 °F 27.0 °F 24% 30.06 in 10.0 mi Calm Calm - N/A   Clear
2:51 AM 64.9 °F 27.0 °F 24% 30.06 in 10.0 mi Calm Calm - N/A   Clear
3:51 AM 63.0 °F 27.0 °F 26% 30.05 in 10.0 mi Calm Calm - N/A   Clear
4:51 AM 62.1 °F 27.0 °F 26% 30.04 in 10.0 mi Calm Calm - N/A   Clear
5:51 AM 63.0 °F 26.1 °F 25% 30.05 in 10.0 mi West 3.5 mph - N/A   Clear
6:51 AM 61.0 °F 28.0 °F 29% 30.06 in 10.0 mi Calm Calm - N/A   Clear
7:51 AM 66.0 °F 24.1 °F 20% 30.07 in 10.0 mi NW 3.5 mph - N/A   Clear
8:51 AM 73.0 °F 21.9 °F 15% 30.08 in 10.0 mi Calm Calm - N/A   Clear
9:51 AM 81.0 °F 23.0 °F 12% 30.08 in 10.0 mi WSW 3.5 mph - N/A   Clear
10:51 AM 89.1 °F 8.1 °F 5% 30.06 in 10.0 mi NNW 10.4 mph - N/A   Clear
11:51 AM 93.9 °F 10.9 °F 5% 30.04 in 10.0 mi North 13.8 mph - N/A   Clear
12:51 PM 96.1 °F 10.9 °F 4% 30.01 in 10.0 mi North 11.5 mph - N/A   Clear
1:51 PM 97.0 °F 10.9 °F 4% 29.99 in 10.0 mi North 9.2 mph - N/A   Clear
2:51 PM 97.0 °F 14.0 °F 5% 29.96 in 10.0 mi North 8.1 mph 18.4 mph N/A   Clear
3:51 PM 98.1 °F 12.9 °F 4% 29.96 in 10.0 mi North 11.5 mph 18.4 mph N/A   Clear
4:51 PM 93.9 °F 19.0 °F 7% 29.95 in 10.0 mi West 8.1 mph - N/A   Clear
5:51 PM 90.0 °F 19.0 °F 7% 29.96 in 10.0 mi West 5.8 mph - N/A   Clear
6:51 PM 84.9 °F 19.0 °F 9% 29.97 in 10.0 mi West 5.8 mph - N/A   Clear
7:51 PM 82.0 °F 21.9 °F 11% 29.99 in 10.0 mi West 5.8 mph - N/A   Clear
8:51 PM 79.0 °F 21.9 °F 12% 29.99 in 10.0 mi West 5.8 mph - N/A   Clear
9:51 PM 77.0 °F 21.9 °F 13% 29.99 in 10.0 mi West 5.8 mph - N/A   Clear
10:51 PM 73.9 °F 23.0 °F 15% 30.00 in 10.0 mi Calm Calm - N/A   Clear
11:51 PM 72.0 °F 24.1 °F 17% 30.00 in 10.0 mi Calm Calm - N/A   Clear